Regional Weather Roundup
Issued by NWS

Home | Current Version | Previous Version | Text Only | Print | Product List | Glossary On
Versions: 1 2 3 4 5 6 7 8 9 10 11 12 13 14 15 16 17 18 19 20 21 22 23 24 25 26 27 28 29 30 31 32 33 34 35 36 37 38 39 40 41 42 43 44 45 46 47 48 49 50
000
ASUS42 KKEY 021710
RWRKEY

FLORIDA REGIONAL WEATHER ROUNDUP FOR THE FLORIDA KEYS
NATIONAL WEATHER SERVICE KEY WEST FLORIDA
100 PM EDT WED SEP 02 2015

...SOUTH FLORIDA AND THE KEYS...

CITY           SKY/WX    TMP DP  RH WIND       PRES   REMARKS
FORT MYERS     MOSUNNY   90  73  57 N3        30.06F HX  98
SW REGIONAL AP MOSUNNY   91  73  55 NW5       30.07F HX  99
NAPLES         SUNNY     91  74  57 SW9       30.07F HX 100
MIAMI          PTSUNNY   90  78  68 CALM      30.07F HX 104
WEST KENDALL   PTSUNNY   86  75  69 N13       30.07F THUNDER HX  95
HOMESTEAD      MOSUNNY   87  74  65 W3        30.06F HX  95
MARATHON       SUNNY     91  79  67 SE7       30.06F HX 107
BOCA CHICA NAS MOSUNNY   90  76  63 S7        30.06F HX 101
KEY WEST INTL  SUNNY     89  78  70 S7        30.06F HX 103

...INTERNATIONAL WEATHER...

CITY           SKY/WX    TMP DP  RH WIND       PRES   REMARKS
NASSAU BAHAMAS PTSUNNY   88  75  66 VRB2      30.09F HX  97
CANCUN MEXICO  MOSUNNY   90  77  66 E8        30.04S HX 102
COZUMEL MEXICO MOSUNNY   86  77  74 E13       30.03S HX  97

ADJACENT COASTAL WATERS...

STATION/POSITION TIME  SKY/WX   TEMP    WIND        PRES    WAVE
                                AIR SEA DIR/SP/G            HT/PER
                 (UTC)          (F)     (DEG/KT/KT) (MB)    (FT/S)
PULASKI SHOAL LI 1600                                 N/A
SAND KEY         1650            86     130/  5     1018.0F
SOMBRERO KEY     NOT AVBL
LONG KEY         1700            86 87  100/  3/  4 1018.8F
MOLASSES REEF    1700            85 87  140/  5/  6 1018.1F
FOWEY ROCKS      NOT AVBL

$$


USA.gov is the U.S. government's official web portal to all federal, state and local government web resources and services.